sat.trackr.live / text

‹ back to catalog

STARLINK-36881

NORAD 67962 · 2026-038B

PAYLOAD ACTIVE UNKNOWN

§ Identity

Operator
Country
US
Launch date
2026-02-25
Launch site
AFWTR
Launch vehicle
Mass (kg)
RCS (m²)

Purposes: comms

External: N2YO · Heavens-Above · Gunter

§ Orbital elements

Epoch: 2026-05-25T00:34:23.122272Z

Period
93.91 min
Inclination
97.2830°
Eccentricity
0.0001693
Mean motion
15.33438105 rev/d
Perigee alt
464.4 km
Apogee alt
466.7 km
Semi-major
6,843.7 km
B*
3.6724e-4
RAAN
154.9927°
Arg perigee
90.4962°
Mean anomaly
269.6475°
Rev number
1,493

§ Raw data

STARLINK-368811 67962U 26038B   26145.02387873  .00011797  00000+0  36724-3 0  99942 67962  97.2830 154.9927 0001693  90.4962 269.6475 15.33438105 14936

JSON: /api/v1/satellites/67962 · /tle

For live sub-satellite position, see the globe view (requires WebGL).

§ Visibility from observer

Set your observer location to see the next 7 days of passes ≥ 10°. The values pass through the URL so the page stays shareable.

No JS? Fill the form by hand. The geolocation button needs JavaScript.